Warning: Javascript must be enabled to use all the features on this page!


Page Loading - Please Wait...

Click to hideNews Bulletins

Peak Streamflow for the Nation

USGS 10321000 HUMBOLDT RV NR CARLIN, NV

Elko County, Nevada
Hydrologic Unit Code 16040101
Latitude  40°43'40", Longitude 116°00'30" NAD27
Drainage area 4,310  square miles
Gage datum 4,935.6 feet above NAVD88
Output formats
Table
Graph
Tab-separated file
peakfq (watstore) format
Reselect output format
Water
Year
Date Gage
Height
(feet)
Stream-
flow
(cfs)
1910 1910-02-28   15,0007
1944 1944-06-15 5.66 1,9305
1945 1945-06-10 7.78 3,6405
1946 1946-04-26 5.61 1,8705
1947 1947-06-02 4.29 1,0805
1948 1948-06-10 4.84 1,3705
1949 1949-05-22 5.51 1,8005
1950 1950-06-08 5.24 1,7305
1951 1951-06-01 5.57 2,0005
1952 1952-05-01 9.35 5,2205
1953 1953-06-20 4.83 1,4405
1954 1954-03-28 2.37 3085
1955 1955-06-16 3.49 7415
1956 1956-05-29 6.83 2,9605
1957 1957-06-10 7.22 3,3405
1958 1958-05-30 5.98 2,2605
1959 1959-06-07 2.08 2255
1960 1960-06-07 3.37 6795
1961 1961-06-09 3.20 6305
1962 1962-02-14 10.21 6,1605
1963 1963-06-09 6.39 2,6305
1964 1964-06-21 6.20 2,5005
1965 1965-06-14 5.57 2,0005
1966 1966-03-19 3.75 8705
1967 1967-06-26 6.00 2,3005
1968 1968-06-11 4.70 1,3405
1969 1969-04-09 7.23 3,2705
1970 1970-06-14 6.44 2,7805
1971 1971-06-19 7.28 3,4205
1972 1972-06-10 5.24 1,7605
1973 1973-05-26 6.08 2,3605
1974 1974-03-05 4.18 1,1305
1975 1975-06-12 7.12 3,4505
1976 1976-05-19 3.83 9435
1977 1977-06-07 4.77 1,2605
1978 1978-06-15 4.50 1,3305
1979 1979-01-12 6.89 3,2205
1980 1980-06-06 7.64 3,9705
1981 1981-06-09 2.90 4845
1982 1982-02-16 5.37 1,9405
1983 1983-03-05 10.17 7,1305
1984 1984-05-17 10.04 8,2505
1985 1985-04-08 4.65 1,4905
1986 1986-02-20 8.30 5,3005
1987 1987-05-29 3.38 7485
1988 1988-06-01 3.61 8335
1989 1989-03-14 4.82 1,6305
1990 1990-06-12 3.90 1,0205
1991 1991-06-17 4.18 1,1905
1992 1992-03-07 2.32 3315
1993 1993-03-28 6.66 2,9405
1994 1994-05-18 3.98 1,0705
1995 1995-06-07 9.52 6,5805
1996 1996-05-19 6.45 2,6505
1997 1997-06-09   3,4002,5
1998 1998-06-12 7.25 3,4705
1999 1999-06-06 6.49 2,6605
2000 2000-05-30 4.42 1,3505
2001 2001-05-19 3.40 7585
2002 2002-06-06 4.54 1,3505
2003 2003-06-05 5.24 1,9605
2004 2004-06-01 3.52 7675
2005 2005-05-24 8.98 4,5905
2006 2006-04-08 8.81 4,4305
2007 2007-05-21 3.26 6645
2008 2008-06-07 4.23 1,1205
2009 2009-06-22 5.13 1,7105
2010 2010-06-11 7.06 2,9905
2011 2011-06-19 7.62 3,3905
2012 2012-03-24 2.41 3695
2013 2013-03-16 2.18 2055
2014 2014-06-01 3.35 6685
2015 2015-06-13 3.97 7405
2016 2016-06-09 5.30 1,8105
2017 2017-02-12 10.57 6,5505
2018 2018-06-01 4.00 1,0905
2019 2019-06-10 8.12 3,9905
2020 2020-06-04 2.78 4805
?
  Peak Streamflow Qualification Codes.